Location: Izdebno
(52.6670°N, 16.2170°E)
Time: 16:07:25
(UTC+01:00)

Vanguard 2 - Pass Details

Date: 02 February 2023
Orbit: 553 x 2927 km, 32.9° (Epoch: 24 March)

Event Time Altitude Azimuth Distance (km) Brightness Sun altitude
Rises 03:47:44 0° 269° (W) 6,754 - -34.5°
Reaches altitude 10° 03:53:54 10° 256° (WSW) 5,757 - -33.6°
Maximum altitude 04:04:58 21° 217° (SW) 4,619 - -32.0°
Exits shadow 04:07:58 20° 203° (SSW) 4,564 11.1 -31.5°
Drops below altitude 10° 04:14:39 10° 176° (S) 4,937 11.5 -30.6°
Sets 04:19:24 0° 161° (SSE) 5,569 12.0 -29.9°
